Location: Guferjoch
(46.7462°N, 8.4506°E)
Time: 12:10:55
(UTC+00:00)

Cosmos 1666 - Pass Details

Date: 14 July 2020
Orbit: 497 x 521 km, 82.5° (Epoch: 07 August)

Event Time Altitude Azimuth Distance (km) Brightness Sun altitude
Exits shadow 01:13:05 21° 141° (SE) 1,193 4.3 -17.9°
Maximum altitude 01:14:57 33° 92° (E) 867 4.0 -17.8°
Drops below altitude 10° 01:18:22 10° 27° (NNE) 1,723 6.7 -17.5°
Sets 01:20:37 0° 18° (NNE) 2,609 8.0 -17.4°
